Regional Weather Roundup
Issued by NWS San Angelo, TX

Home | Current Version | Previous Version | Text Only | Print | Product List | Glossary On
Versions: 1 2 3 4 5 6 7 8 9 10 11 12 13 14 15 16 17 18 19 20 21 22 23 24 25 26 27 28 29 30 31 32 33 34 35 36 37 38 39 40 41 42 43 44 45 46 47 48 49 50
000
ASUS44 KSJT 301410
RWRSJT
WEST CENTRAL TEXAS REGIONAL WEATHER ROUNDUP
NATIONAL WEATHER SERVICE SAN ANGELO TX
900 AM CDT TUE JUN 30 2015

NOTE: "FAIR" INDICATES FEW OR NO CLOUDS BELOW 12,000 FEET WITH NO
SIGNIFICANT WEATHER AND/OR OBSTRUCTIONS TO VISIBILITY.

TXZ049-054-064>066-071>073-076>078-098-099-113-114-127-128-139-140-
154-155-168>170-301500
...LOCATIONS ACROSS WEST CENTRAL TEXAS...

CITY           SKY/WX    TMP DP  RH WIND       PRES   REMARKS
SAN ANGELO     CLOUDY    71  65  81 SW5       30.12R HAZE
ABILENE        PTSUNNY   74  66  76 SE7       30.09R
DYESS AFB      PTSUNNY   75  68  78 S7        30.07S
JUNCTION       PTSUNNY   76  71  85 CALM      30.10R
SWEETWATER     CLOUDY    71  64  77 S10       30.14R
BROWNWOOD      PTSUNNY   77  68  73 E5        30.10R
COLEMAN        PTSUNNY   77  67  72 CALM      30.10S
SONORA         CLOUDY    75  72  88 SW5       30.16R
OZONA          NOT AVBL
BRADY          MOSUNNY   77  72  83 CALM      30.11R
$$

TEXAS PANHANDLE/OKLAHOMA PANHANDLE

CITY           SKY/WX    TMP DP  RH WIND       PRES   REMARKS
AMARILLO       SUNNY     70  57  63 S16       30.18R
BORGER         SUNNY     74  60  61 SW7       30.14R
CANADIAN       SUNNY     73  64  75 W3        30.10S
DALHART        SUNNY     72  56  57 S14       30.20R
DUMAS          SUNNY     69  61  76 SW10      30.17F
GUYMON         NOT AVBL
HEREFORD       SUNNY     70  60  69 MISG      30.21R
PAMPA          SUNNY     74  57  54 SW16G22   30.16R
PERRYTON       SUNNY     77  59  54 SW7       30.11S
$$

SOUTHERN PANHANDLE/SOUTH PLAINS/ROLLING PLAINS

CITY           SKY/WX    TMP DP  RH WIND       PRES   REMARKS
LUBBOCK        CLOUDY    68  62  81 W12       30.14F
SNYDER         CLOUDY    67  64  88 S5        30.13R
CHILDRESS      MOSUNNY   74  63  68 W12       30.08S
SEMINOLE       CLOUDY    67  61  81 SW6       30.16S
$$

PERMIAN BASIN

CITY           SKY/WX    TMP DP  RH WIND       PRES   REMARKS
MIDLAND        CLOUDY    67  62  84 S13       30.10F
ODESSA           N/A     66  61  84 S7        30.12F
WINK           PTSUNNY   69  60  73 E15       30.11R
$$

FAR WEST/SOUTHWEST MOUNTAINS/TRANS PECOS

CITY           SKY/WX    TMP DP  RH WIND       PRES   REMARKS
ALPINE         CLOUDY    63  59  88 NE14G24   30.30R
DRYDEN           N/A     75  69  81 NE10      30.09R
EL PASO        MOSUNNY   75  55  49 N8        30.14R
FORT STOCKTON  CLOUDY    67  58  72 SE13      30.12F
GUADALUPE PASS CLOUDY    61  59  93 NE33      30.25R
MARFA          PTSUNNY  N/A N/A N/A NE23G30   30.25R THUNDER
PECOS          CLOUDY    66  62  87 SE9       30.12S
$$

DALLAS/FORT WORTH METROPLEX

CITY           SKY/WX    TMP DP  RH WIND       PRES   REMARKS
DFW AIRPORT    PTSUNNY   82  69  64 SW14      30.05R
FTW MEACHAM    SUNNY     81  70  69 S14       30.05R
DAL-EXECUTIVE  PTSUNNY   73  66  78 VRB5      30.05R
GRAND PRAIRIE  NOT AVBL
ADDISON        NOT AVBL
MESQUITE       SUNNY     77  66  69 S8        30.05R
LANCASTER      PTSUNNY   74  64  71 S6        30.06R
$$

NORTH CENTRAL TEXAS

CITY           SKY/WX    TMP DP  RH WIND       PRES   REMARKS
SHRMAN/DENISON SUNNY     79  69  72 SW10      30.04R
GAINESVILLE    SUNNY     77  67  69 S8        30.05R
BRIDGEPORT     SUNNY     80  71  73 S8        30.06R
DENTON         SUNNY     79  70  74 S14       30.04R
WAXAHACHIE     PTSUNNY   73  68  82 SW7       30.08R
GRANBURY       CLOUDY    76  68  77 SE7       30.09R
$$

WESTERN NORTH TEXAS

CITY           SKY/WX    TMP DP  RH WIND       PRES   REMARKS
WICHITA FALLS  MOSUNNY   77  66  68 W5        30.02S
VERNON         MOSUNNY   79  58  48 CALM      30.06S
BRECKENRIDGE   PTSUNNY   78  66  66 W5        30.07R
COMANCHE       PTSUNNY   76  71  84 CALM      30.10R
$$

CENTRAL AND SOUTH CENTRAL TEXAS

CITY           SKY/WX    TMP DP  RH WIND       PRES   REMARKS
AUSTIN/BERGSTM CLOUDY    78  76  93 CALM      30.06S
WACO           TSTM      72  68  87 SE6       30.11R
HILLSBORO      PTSUNNY   74  66  76 SE3       30.07R
TEMPLE         PTSUNNY   79  72  78 S5        30.08R
KILLEEN-GRAY   PTSUNNY   78  74  85 S6        30.08R
FORT HOOD      PTSUNNY   80  73  79 SW9       30.08R
GEORGETOWN     MOSUNNY   79  75  89 S8        30.06R
LAGO VISTA     FAIR      79  73  81 S3        30.10R
SAN MARCOS     CLOUDY    79  73  83 S6        30.07R FOG
NEW BRAUNFELS  CLOUDY    81  76  84 SW5       30.04S
RANDOLPH AFB   PTSUNNY   81  75  83 S8        30.06R
SAN ANTONIO    PTSUNNY   81  74  79 S7        30.05S
STINSON        PTSUNNY   80  75  84 S9        30.03R
PLEASANTON     NOT AVBL
LA GRANGE      CLOUDY    79  78  96 CALM      30.04S FOG
GIDDINGS       PTSUNNY   78  75  92 SW5       30.10S FOG
$$

EAST TEXAS

CITY           SKY/WX    TMP DP  RH WIND       PRES   REMARKS
PARIS          SUNNY     81  61  50 SW7       30.03R
CLARKSVILLE    NOT AVBL
TYLER          CLOUDY    78  68  71 S8        30.05R
LONGVIEW       CLOUDY    80  75  84 S9        30.04R
PALESTINE      CLOUDY    73  71  95 S5        30.07F
NACOGDOCHES    PTSUNNY  N/A N/A N/A W5        30.06S
$$

TEXAS HILL COUNTRY AND EDWARDS PLATEAU

CITY           SKY/WX    TMP DP  RH WIND       PRES   REMARKS
LLANO          PTSUNNY   81  73  78 CALM      30.12R
HORSESHOE BAY  FAIR      80  73  78 CALM      30.09R
KERRVILLE      PTSUNNY   76  73  89 S5        30.10R
FREDERICKSBRG  CLOUDY    77  70  80 SW5       30.11R
ROCKSPRINGS    PTSUNNY   75  70  83 S8        30.14R HAZE
HONDO          CLOUDY    78  74  87 SE8       30.08R
UVALDE         CLOUDY    77  74  90 SE7       30.07R FOG
DEL RIO        CLOUDY    77  73  87 SE8       30.03R
$$

SOUTHEAST TEXAS

CITY           SKY/WX    TMP DP  RH WIND       PRES   REMARKS
COLLEGE STN    CLOUDY    80  76  87 W5        30.07R
CALDWELL       CLOUDY    77  77 100 SW7       30.10R FOG
CROCKETT         N/A    N/A N/A N/A W5        30.10
BRENHAM        PTSUNNY   80  78  96 SW5       30.06S FOG
HUNTSVILLE     PTSUNNY   81  76  84 W5        30.07R
CONROE         CLOUDY    81  75  82 VRB3      30.06S
HOUSTON BUSH   PTSUNNY   84  78  82 SW5       30.05R
HOUSTON HOBBY  PTSUNNY   84  75  74 SW9       30.04R
PERLAND        PTSUNNY   84  76  76 VRB5      30.06R
WHARTON        MOSUNNY   81  75  83 CALM      30.06R
$$

THE UPPER TEXAS COAST

CITY           SKY/WX    TMP DP  RH WIND       PRES   REMARKS
ORANGE         PTSUNNY   83  80  90 CALM      30.07S
PORT ARTHUR    PTSUNNY   85  80  85 SW3       30.05R
GALVESTON      PTSUNNY   86  79  79 SW8       30.05R
ANGLETON       PTSUNNY   84  76  76 CALM      30.05R
BAY CITY       MOSUNNY   84  79  84 SE3       30.04R
$$

TEXAS COASTAL BEND, RIO GRANDE PLAINS DEEP SOUTH TEXAS

CITY           SKY/WX    TMP DP  RH WIND       PRES   REMARKS
VICTORIA       SUNNY     83  79  88 CALM      30.03R
BEEVILLE       FAIR      82  82 100 SE7       30.02S
ROCKPORT       SUNNY     86  76  71 S7        30.00R
PORT ARANSAS   SUNNY     84  77  79 S7        30.01R
PORT LAVACA    SUNNY     83  79  86 S6        30.03R
CORPUS CHRISTI PTSUNNY   84  77  79 SE8       30.01R
KINGSVILLE NAS MOSUNNY   85  81  88 SE13      30.00S
COTULLA        MOSUNNY   81  75  82 S10       30.02S
LAREDO         MOSUNNY   82  74  77 SE10      30.03R
BROWNSVILLE    PTSUNNY   82  76  81 SE5       30.01R
PORT ISABEL    MOSUNNY   82  76  81 SE10      30.01R
HEBBRONVILLE     N/A     80  75  86 SE7       30.03R
MCALLEN        MOSUNNY   81  73  76 SE13      30.02R
WESLACO        PTSUNNY   79  72  78 S12       30.01R
FALFURRIAS     SUNNY     83  76  79 SE10      30.01R
EDINBURG       MOSUNNY   80  74  81 SE6       30.02R
$$


USA.gov is the U.S. government's official web portal to all federal, state and local government web resources and services.